SCP
0 0 0 0 0 0 0 0 0 0 0 0 0 0 0 0 0 0 0 0 0 0 0 0 0 0 0 0 0 0 0 0 0 0 0 0 0 0
0 0 0 0 0 0 0 0 0 0 0 0 0 0 0 0 0 0 0 0 0 0 0 0 0 0 0 0 0 0 0 0 0 0 0 0 0 0
0 0 0 0 0 0 0 0 0 0 0 0 0 0 0 0 0 0 0 0 0 0 0 0 0 0 0 0 0 0 0 0 0 0 0 0 0 0
0 0 0 0 0 0 0 0 0 0 0 0 0 0 0 0 0 0 0 0 0 0 0 0 0 0 0 0 0 0 0 0 0 0 0 0 0 0
0 0 0 0 0 0 0 0 0 0 0 0 0 0 0 0 0 0 0 0 0 0 0 0 0 0 0 0 0 0 0 0 0 0 0 0 0 0
0 0 0 0 0 0 0 0 0 0 0 0 0 0 0 0 0 0 0 0 0 0 0 0 0 0 0 0 0 0 0 0 0 0 0 0 0 0
0 0 0 0 0 0 0 0 0 0 0 0 0 0 0 0 0 0 0 0 0 0 0 0 0 0 0 0 0 0 0 0 0 0 0 0 0 0
0 0 0 0 0 0 0 0 0 0 0 0 0 0 0 0 0 0 0 0 0 0 0 0 0 0 0 0 0 0 0 0 0 0 0 0 0 0
0 0 0 0 0 0 0 0 0 0 0 0 0 0 0 0 0 0 0 0 0 0 0 0 0 0 0 0 0 0 0 0 0 0 0 0 0 0
0 0 0 0 0 0 0 0 0 0 0 0 0 0 0 0 0 0 0 0 0 0 0 0 0 0 0 0 0 0 0 0 0 0 0 0 0 0
0 0 0 0 0 0 0 0 0 0 0 0 0 0 0 0 0 0 0 0 0 0 0 0 0 0 0 0 0 0 0 0 0 0 0 0 0 0
0 0 0 0 0 0 0 0 0 0 0 0 0 0 0 0 0 0 0 0 0 0 0 0 0 0 0 0 0 0 0 0 0 0 0 0 0 0
0 0 0 0 0 0 0 0 0 0 0 0 0 0 0 0 0 0 0 0 0 0 0 0 0 0 0 0 0 0 0 0 0 0 0 0 0 0
0 0 0 0 0 0 0 0 0 0 0 0 0 0 0 0 0 0 0 0 0 0 0 0 0 0 0 0 0 0 0 0 0 0 0 0 0 0
0 0 0 0 0 0 0 0 0 0 0 0 0 0 0 0 0 0 0 0 0 0 0 0 0 0 0 0 0 0 0 0 0 0 0 0 0 0
0 0 0 0 0 0 0 0 0 0 0 0 0 0 0 0 0 0 0 0 0 0 0 0 0 0 0 0 0 0 0 0 0 0 0 0 0 0
0 0 0 0 0 0 0 0 0 0 0 0 0 0 0 0 0 0 0 0 0 0 0 0 0 0 0 0 0 0 0 0 0 0 0 0 0 0
0 0 0 0 0 0 0 0 0 0 0 0 0 0 0 0 0 0 0 0 0 0 0 0 0 0 0 0 0 0 0 0 0 0 0 0 0 0
0 0 0 0 0 0 0 0 0 0 0 0 0 0 0 0 0 0 0 0 0 0 0 0 0 0 0 0 0 0 0 0 0 0 0 0 0 0
0 0 0 0 0 0 0 0 0 0 0 0 0 0 0 0 0 0 0 0 0 0 0 0 0 0 0 0 0 0 0 0 0 0 0 0 0 0
0 0 0 0 0 0 0 0 0 0 0 0 0 0 0 0 0 0 0 0 0 0 0 0 0 0 0 0 0 0 0 0 0 0 0 0 0 0
0 0 0 0 0 0 0 0 0 0 0 0 0 0 0 0 0 0 0 0 0 0 0 0 0 0 0 0 0 0 0 0 0 0 0 0 0 0
0 0 0 0 0 0 0 0 0 0 0 0 0 0 0 0 0 0 0 0 0 0 0 0 0 0 0 0 0 0 0 0 0 0 0 0 0 0
Wind_Speed
4 4 4 4 4 4 4 4 4 8 7 5 4 4 4 5 10 7 6 15 21 22 22 21 22 22 21 21 20 20 19 19 19 18 18 18 18 18
2 3 3 3 3 3 3 4 4 6 9 4 4 5 6 9 14 9 7 21 22 22 22 22 21 22 22 23 23 22 21 21 20 20 19 19 19 19
4 4 4 4 3 4 4 4 4 4 9 7 4 5 6 8 9 8 8 8 10 20 21 21 20 20 21 21 21 21 21 20 21 21 21 20 19 19
5 5 6 5 5 5 4 5 5 5 7 11 6 5 7 8 8 9 10 10 7 17 21 21 21 19 18 18 18 17 17 17 17 19 20 20 19 19
5 6 6 6 6 6 6 6 6 7 6 8 9 6 6 7 8 10 11 9 10 13 17 18 18 17 16 14 14 15 15 15 16 17 18 18 19 19
6 6 7 7 7 7 7 7 7 7 7 8 9 8 7 7 7 8 9 7 8 10 13 14 16 18 17 15 14 15 15 15 16 16 16 16 16 17
7 7 8 12 14 10 8 7 7 7 7 8 9 8 8 7 7 7 9 8 9 8 8 8 8 7 8 12 15 16 14 15 16 16 16 16 15 15
8 9 9 10 13 17 19 18 16 11 9 9 9 9 10 9 8 7 8 9 7 5 6 8 6 7 7 6 12 14 13 13 14 15 16 15 15 14
8 8 9 10 13 9 13 18 17 19 18 12 11 10 10 8 8 9 9 9 9 6 5 7 6 7 7 8 14 14 14 13 13 14 14 14 14 13
8 9 9 10 10 10 10 11 11 11 12 9 8 9 9 8 8 9 9 8 8 7 6 5 4 5 6 5 10 13 12 12 13 12 13 13 13 12
9 9 9 9 12 14 11 10 11 9 11 12 12 11 12 12 9 6 5 6 6 4 2 3 2 2 3 4 6 10 11 11 11 11 11 12 12 10
8 9 11 11 13 14 9 9 9 9 9 9 8 8 7 6 7 5 5 5 4 3 2 2 2 2 3 2 2 2 4 7 10 10 11 11 11 7
8 7 7 13 15 14 11 7 9 10 8 7 6 5 5 4 4 4 4 4 4 3 3 3 2 2 2 2 2 2 3 3 4 6 9 12 13 10
7 7 8 14 14 13 9 9 12 9 5 5 4 4 4 4 4 5 5 4 4 4 5 4 2 2 2 2 3 2 3 4 4 4 5 9 12 13
7 12 13 14 12 8 9 12 9 5 4 4 4 4 4 4 5 4 5 4 3 3 4 4 3 3 2 2 3 3 2 3 4 5 5 6 7 8
7 9 12 11 9 9 8 7 5 4 4 4 5 4 3 4 4 4 4 4 3 3 4 4 4 5 4 3 3 3 2 2 1 3 5 5 6 6
7 5 5 6 6 6 6 6 5 5 5 4 4 4 4 4 4 4 4 4 4 5 6 5 4 2 3 8 4 5 4 3 2 4 5 6 6 5
6 5 5 6 6 7 7 6 5 5 5 4 4 4 5 5 5 5 4 5 5 6 7 7 7 5 3 6 16 9 7 6 6 7 6 6 6 5
5 5 6 6 6 7 6 6 6 6 5 4 4 4 4 5 5 5 5 5 6 6 7 7 8 7 8 9 12 19 10 8 8 9 9 7 6 6
5 6 6 6 6 6 7 6 7 7 5 4 4 3 4 5 5 6 6 7 6 7 7 8 8 8 8 6 6 11 21 12 9 10 10 9 10 13
6 6 6 6 6 6 7 7 7 6 7 5 4 3 3 3 4 5 5 8 7 7 8 8 9 10 5 4 7 10 14 23 20 10 7 8 9 10
6 6 6 6 6 6 7 7 7 7 7 6 5 3 2 2 3 4 4 5 6 7 8 7 8 7 8 10 11 11 12 13 20 29 28 18 7 7
5 6 6 6 6 6 6 8 8 7 7 7 6 3 2 2 2 2 2 3 4 6 7 7 7 8 10 10 10 11 15 14 12 14 17 25 28 26
Wind_Direction
263 263 257 261 257 250 240 230 259 288 284 256 260 260 268 272 284 287 278 294 297 295 291 287 283 279 276 272 268 264 259 256 257 259 262 265 268 271
303 306 296 286 283 276 265 255 242 266 285 260 251 258 275 288 293 290 281 293 294 291 287 283 279 274 270 266 261 258 255 253 252 252 254 257 261 264
351 338 316 303 293 289 280 268 260 257 280 285 256 263 267 273 284 281 278 274 276 284 286 285 281 275 270 264 257 254 253 250 249 249 250 251 255 260
337 328 315 313 301 287 276 267 263 255 265 284 284 271 266 268 271 274 284 283 276 284 285 284 284 278 272 264 256 251 248 245 244 246 248 250 252 256
316 308 301 300 294 287 277 270 266 269 259 273 282 272 269 272 276 278 277 275 279 281 281 282 284 284 279 270 259 250 244 240 238 238 241 246 250 253
308 300 294 288 281 280 279 272 272 273 270 270 277 278 275 271 267 274 280 271 272 276 278 278 277 279 277 273 264 254 244 235 232 232 233 235 241 248
310 302 296 303 306 306 304 293 284 278 276 275 278 279 277 275 270 267 276 278 270 262 265 266 266 264 267 268 266 259 249 238 231 229 228 228 232 238
306 305 303 304 309 313 310 307 302 294 288 281 281 279 279 275 275 273 275 278 278 248 246 261 251 255 255 247 252 253 248 242 233 227 224 223 225 230
300 302 308 308 311 300 303 306 302 298 293 287 283 282 282 280 279 278 274 274 274 268 262 267 253 253 251 252 251 247 242 239 236 228 220 217 219 222
300 298 297 299 303 307 307 303 298 296 294 292 283 283 283 282 278 279 283 281 272 267 256 263 251 247 252 244 246 244 240 233 229 222 216 212 211 212
304 303 304 302 304 313 313 307 305 304 306 300 293 289 289 290 294 294 291 293 293 280 255 258 264 264 260 250 243 238 234 229 223 218 212 205 200 197
310 308 309 307 311 316 313 308 308 312 313 314 311 309 305 304 311 307 310 308 305 294 325 309 281 283 284 274 252 233 229 227 220 213 209 201 189 183
311 312 311 314 316 316 314 305 306 310 308 307 309 312 317 318 316 311 308 308 307 295 319 308 282 268 263 283 279 237 214 213 213 217 213 204 192 184
309 311 312 317 320 321 320 316 319 321 314 316 320 321 322 327 324 318 313 311 309 307 318 317 291 299 289 275 276 273 235 216 209 209 200 193 194 190
313 318 322 326 329 327 324 327 327 324 322 324 324 318 319 325 327 325 322 321 320 333 344 346 340 319 298 286 282 268 259 231 210 201 188 181 177 175
326 324 327 332 339 334 331 332 328 321 321 319 322 320 328 338 342 340 336 341 342 339 343 349 354 359 354 320 304 302 285 272 211 169 157 150 150 156
325 330 343 342 347 343 338 334 333 337 339 337 339 348 354 357 356 350 354 357 6 4 2 352 336 323 30 15 355 357 5 25 67 106 119 120 125 139
357 348 347 346 343 343 342 339 335 342 344 350 355 1 6 9 9 7 8 16 21 19 14 4 359 1 359 42 23 14 27 41 61 75 88 98 99 101
5 350 348 346 343 344 344 342 342 343 347 355 1 8 13 16 16 19 19 23 28 29 26 19 16 18 36 34 20 21 29 43 59 66 65 68 73 77
356 349 346 344 344 346 346 346 348 352 356 358 3 12 22 27 29 28 29 29 32 34 35 30 27 26 33 29 24 28 34 40 49 62 67 70 71 74
348 346 343 343 345 347 346 348 351 353 357 360 3 9 20 33 36 33 35 33 37 40 44 38 23 17 19 39 56 49 45 48 53 50 49 65 68 66
344 342 341 343 346 347 347 350 353 356 358 1 0 4 15 32 49 50 42 39 42 48 52 44 29 31 44 58 59 55 55 57 57 57 55 57 65 66
340 339 339 343 347 348 348 350 354 355 356 356 358 0 7 20 31 60 58 48 50 55 57 54 48 51 55 57 61 61 58 58 59 62 62 63 72 78